STARLINK-4147, 53256

Orbit data source: Space-Track

STARLINK-4147, 53256 is a payload satellite owned by SpaceX/Seattle (US) in LEO that was launched on Sun, 24 Jul 2022 UTC via an FALCON 9 launch vehicle from the Air Force Eastern Test Range (AFETR). Payload-class satellites include a variety of spacecraft equipped with specific instruments for various scientific and technological missions. These include communications satellites like Starlink; space stations such as the ISS; scientific satellites like the Hubble; Earth observation satellites from companies like Planet Labs, Umbra, and HawkEye 360; GPS; miniature CubeSats for education and research; and military/defense satellites.

Loading next visibility...
Identifier
53256, 2022-086Q
Orbit
LEO
Country
Flag of USUS
Related business
Manufacturer
SpaceX/Seattle
Mission
Operational Commercial Communications
Bus & Motor
STARLINK, Unknown motor
Mass
297 kg wet, ~275 kg dry
Launch date (UTC)
2022-07-24 (4 years ago)
Launch vehicle
FALCON 9
Launch site
Air Force Eastern Test Range (AFETR)
Object type
Payload
Rocket body
Debris
Shape & HBR
Box + 1 Pan, 10.1 m
Radar Cross Section
13.562 m², Large (>1 m²)

Expand to show TLE details & history
Last TLE update: 2 days ago

TLE from 2 days ago
0 STARLINK-4147
1 53256U 22086Q   26171.16829850  .00000545  00000-0  52340-4 0  9997
2 53256  53.1614  93.9646 0001458  87.7952 272.3207 15.08834004216539
Epoch: 2026-06-20T04:02Z
TLE epoch observation values (Epoch: 2026-06-20T04:02:20.990Z)
Latitude
0.00003°
Longitude
124.99037°
Altitude
540.613 km
Speed
7.593 km/s
True Right ascension
06h 15m 51s
True Declination
0° 00' 00"
Sunlit
Object was in daylight at epoch
Visualization orbit readout
Latitude
Unknown
Longitude
Unknown
Altitude
Unknown
Speed
Unknown
Apparent Right ascension
Unknown
Apparent Declination
Unknown
Sunlit
N/A
Visualization observer readout
Local Sidereal Time
21:25:24
Azimuth
Unknown
Elevation
Unknown
Doppler factor
Unknown
Orbital elements
Apogee altitude
541.024 km
Perigee altitude
539.007 km
Semi-major axis
6,918.153 km
Eccentricity
0.00015
Inclination
53.1614°
RAAN
93.9646°
Arg. of periapsis
87.7952°
True anomaly
272.30401°
Mean anomaly
272.3207°
Eccentric anomaly
272.31235°
Mean motion
3.77188 °/min
Orbital period
95.44 mins
BSTAR
0.00005234
Loading maneuver chart data...
Computing Atmospheric mass density...
Loading historical data...
Loading historical data...
Loading historical data...
Loading historical data...
Loading historical data...
Loading historical data...
Loading historical data...

Documentation

Showing up to 5 results
|